{"data":{"norad_id":87271,"intl_designator":"","name":"UNKNOWN","alt_names":[],"object_type":"UNKNOWN","status":"UNKNOWN","operator":null,"country":null,"launch_date":null,"launch_site_code":null,"launch_vehicle":null,"mission":null,"orbit_class":"UNKNOWN","rcs_meters":null,"size_class":null,"mass_kg":null,"dimensions":null,"purposes":[],"wikipedia_slug":null,"has_3d_model":false,"image_url":null,"decayed_at":null,"tle_current":{"epoch":"2026-05-24T01:15:31.615200Z","epoch_age_seconds":171009,"freshness":"FRESH","line1":"1 87271U          26144.05244925  .00006093  00000+0  10494-2 0  9990","line2":"2 87271  65.7518 159.0750 0423823 348.3538  10.7971 14.24016545635463","mean_motion":14.24016545,"eccentricity":0.0423823,"inclination_deg":65.7518,"raan_deg":159.075,"arg_perigee_deg":348.3538,"mean_anomaly_deg":10.7971,"bstar":0.0010494,"rev_number":63546,"period_min":101.12242059659,"perigee_km":507.07498237244,"apogee_km":1116.5272090815,"semimajor_km":7189.938095727,"source":"CELESTRAK","updated_at":"2026-05-25T13:38:11.666357Z"}}}